[[{"header":{"parameterUnit":"m.s-1","parameterCategory":1,"la1":30.2991,"la2":30.254,"lo1":-89.0895,"lo2":-89.0444,"dy":0.0017,"dx":0.0017,"nx":28,"ny":28,"refTime":"2025-04-23T09:00:00:Z","depth":0,"parameterNumber":2,"parameterNumberName":"U-component_of_WINDS"},"data":[0,0,0,0,0,0,0,0,0,0,0,0,0,0,0,0,0,0,0,0,0,0,0,0,0,0,0,0,0,0,0,0,0,0,0,0,0,0,0,0,0,0,0,0,0,0,0,0,0,0,0,0,0,0,0,0,0,0,-1.9141,-1.9141,0,-1.91,-1.91,-1.9099,-1.9033,-1.9032,-1.903,-1.9029,-1.8987,-1.8987,-1.8987,0,0,0,0,0,0,0,0,0,0,0,0,0,-1.9164,-1.9164,-1.9141,-1.9141,-1.914,-1.91,-1.91,-1.9099,-1.9033,-1.9032,-1.903,-1.9029,-1.8987,-1.8987,-1.8987,0,0,0,0,0,0,0,0,0,0,0,0,0,-1.9141,-1.9164,-1.9141,-1.9102,-1.9099,-1.91,-1.91,-1.9099,-1.9033,-1.9032,-1.903,-1.9028,-1.8987,-1.8987,-1.8987,-1.9023,0,0,-1.8987,-1.8987,0,0,0,0,0,0,0,0,-1.9143,-1.9141,-1.9109,-1.9105,-1.9101,-1.907,-1.9092,-1.9073,-1.9034,-1.9058,-1.9029,-1.9027,-1.9016,-1.9013,-1.9009,-1.9021,-1.9019,-1.8987,-1.8987,-1.8987,-1.8987,0,0,0,0,0,0,0,-1.9144,-1.9142,-1.9125,-1.9108,-1.9104,-1.9087,-1.9082,-1.9088,-1.9048,-1.9056,-1.9051,-1.9047,-1.9013,-1.901,-1.9008,-1.9018,-1.8987,-1.8987,-1.8987,-1.8987,-1.9059,-1.9061,0,0,0,0,0,0,-1.9152,-1.9144,-1.9126,-1.9124,-1.9118,-1.9089,-1.9083,-1.9082,-1.9047,-1.904,-1.9049,-1.9044,-1.9011,-1.9008,-1.9006,-1.9047,-1.8987,-1.8987,-1.8987,-1.9057,-1.9059,-1.9061,0,0,0,0,0,0,-1.9152,-1.9151,-1.9128,-1.9132,-1.9128,-1.909,-1.9089,-1.9082,-1.9078,-1.9042,-1.9034,-1.9052,-1.9009,-1.9006,-1.902,-1.9044,-1.8987,-1.8987,-1.9055,-1.9058,-1.906,-1.9128,0,0,0,0,0,0,-1.9153,-1.9151,-1.9164,-1.9133,-1.9128,-1.9142,-1.9091,-1.9082,-1.9078,-1.9072,-1.9043,-1.9037,-1.9007,-1.902,-1.902,-1.9043,-1.8987,-1.9052,-1.9056,-1.9059,-1.9123,-1.9133,-1.9141,0,0,0,0,0,-1.9154,-1.9185,-1.9165,-1.9163,-1.9144,-1.9143,-1.914,-1.9106,-1.908,-1.9093,-1.9071,-1.9038,-1.9042,-1.9022,-1.9021,-1.9045,-1.905,-1.9055,-1.9059,-1.9119,-1.9131,-1.9141,0,0,0,0,0,0,-1.9219,-1.918,-1.9158,-1.9179,-1.9165,-1.9132,-1.9147,-1.9119,-1.9112,-1.9106,-1.9064,-1.9058,-1.9077,-1.9062,-1.9041,-1.9079,-1.9041,-1.9046,-1.9087,-1.9098,-1.9107,-1.9109,-1.8987,0,0,0,0,0,-1.9236,-1.9239,-1.9204,-1.9226,-1.922,-1.9185,-1.9184,-1.9159,-1.9143,-1.9136,-1.9114,-1.91,-1.9098,-1.9097,-1.9094,-1.9122,-1.9115,-1.9138,-1.9147,-1.9154,-1.9158,-1.9172,-1.9182,-1.9076,-1.9076,-1.9075,0,0,-1.927,-1.9249,-1.9253,-1.9239,-1.9225,-1.9229,-1.9181,-1.9187,-1.9189,-1.9137,-1.9148,-1.9132,-1.9113,-1.9134,-1.9142,-1.9123,-1.9186,-1.916,-1.9166,-1.9165,-1.9178,-1.9188,-1.9197,-1.9078,-1.9078,-1.9077,0,0,-1.9335,-1.932,-1.9336,-1.9324,-1.9304,-1.9281,-1.9285,-1.9257,-1.9244,-1.9255,-1.9216,-1.9219,-1.9217,-1.9205,-1.9199,-1.9262,-1.9232,-1.9262,-1.9308,-1.9322,-1.9331,-1.9338,-1.9361,-1.9369,-1.9267,-1.9267,-1.9267,0,-1.938,-1.9385,-1.9349,-1.9357,-1.9352,-1.9306,-1.9323,-1.9313,-1.9293,-1.9291,-1.927,-1.9266,-1.925,-1.9269,-1.9284,-1.9281,-1.9285,-1.9265,-1.9333,-1.9339,-1.9346,-1.9367,-1.9375,-1.9271,-1.927,-1.927,-1.9269,0,-1.9441,-1.9445,-1.9461,-1.9444,-1.9441,-1.9454,-1.942,-1.9422,-1.9398,-1.9378,-1.939,-1.937,-1.9361,-1.9364,-1.934,-1.9379,-1.9368,-1.934,-1.9301,-1.936,-1.9379,-1.9387,-1.9276,-1.9275,-1.9274,-1.9273,0,0,-1.9543,-1.9507,-1.9514,-1.9506,-1.9482,-1.9484,-1.9496,-1.9488,-1.949,-1.9479,-1.9488,-1.9488,-1.9463,-1.9456,-1.9431,-1.9444,-1.9496,-1.9415,-1.9414,-1.943,-1.9538,-1.9559,-1.9568,-1.9477,-1.9478,-1.9479,-1.954,0,-1.9603,-1.962,-1.9589,-1.9614,-1.9618,-1.9575,-1.9585,-1.9572,-1.9554,-1.9554,-1.9534,-1.9535,-1.9502,-1.9498,-1.9509,-1.9487,-1.9517,-1.9483,-1.9484,-1.9485,-1.9489,-1.9578,-1.9599,-1.9657,-1.9547,-1.9548,-1.9549,0,-1.9674,-1.9666,-1.9692,-1.9667,-1.9668,-1.9677,-1.9669,-1.967,-1.9655,-1.964,-1.9634,-1.9605,-1.9616,-1.958,-1.9594,-1.9571,-1.957,-1.9561,-1.9562,-1.956,-1.952,-1.9578,-1.9675,-1.9684,-1.956,-1.956,-1.9559,0,-1.9746,-1.9742,-1.9757,-1.9752,-1.9723,-1.9732,-1.972,-1.9703,-1.9701,-1.9694,-1.9692,-1.9686,-1.9683,-1.968,-1.965,-1.9627,-1.9668,-1.9629,-1.9657,-1.9658,-1.9666,-1.9666,-1.9764,-1.9667,-1.9667,-1.9667,-1.9667,0,-1.9814,-1.9832,-1.9789,-1.9798,-1.9817,-1.9782,-1.9801,-1.9785,-1.9771,-1.9777,-1.974,-1.9746,-1.9708,-1.971,-1.9687,-1.9703,-1.9702,-1.9691,-1.9684,-1.9693,-1.9695,-1.9691,-1.9686,-1.9669,-1.9669,-1.9668,-1.9668,0,-1.9897,-1.9869,-1.9883,-1.9856,-1.9849,-1.9864,-1.9841,-1.9849,-1.9829,-1.9837,-1.9837,-1.9806,-1.9807,-1.9778,-1.9773,-1.9758,-1.9783,-1.977,-1.9788,-1.9784,-1.9813,-1.981,-1.9911,-1.9923,-1.982,-1.9821,-1.9822,0,-1.9942,-1.9955,-1.9929,-1.9931,-1.9921,-1.9924,-1.9922,-1.9889,-1.9888,-1.9873,-1.9883,-1.9881,-1.9877,-1.9882,-1.9859,-1.9855,-1.9841,-1.9877,-1.984,-1.985,-1.9841,-1.9841,-1.9842,-1.9884,-1.9886,-1.9887,-1.9887,0,-2.0026,-2.0012,-2.001,-2.0005,-2.0004,-1.9998,-1.9989,-1.9992,-1.9956,-1.9958,-1.9959,-1.9956,-1.9952,-1.9951,-1.9943,-1.9932,-1.9904,-1.99,-1.9906,-1.9914,-1.9925,-1.9919,-1.9809,-1.9897,-1.9896,-1.9895,-1.9895,-1.9894,-2.0091,-2.01,-2.0084,-2.0084,-2.0074,-2.0068,-2.0074,-2.0056,-2.0056,-2.005,-2.003,-2.0035,-2.0021,-2.0008,-1.9999,-2.0003,-1.9985,-1.9994,-1.9996,-1.9999,-2.0004,-1.9925,-2.0001,-2.0001,-2.0001,-2.0001,-2.0,0,-2.0172,-2.016,-2.016,-2.015,-2.0151,-2.0125,-2.0115,-2.0117,-2.0121,-2.011,-2.0108,-2.011,-2.0109,-2.0088,-2.0084,-2.0091,-2.0078,-2.0092,-2.009,-2.0088,-2.002,-2.0015,-2.0102,-2.0102,-2.0102,-2.0102,-2.0102,-2.0102,-2.0214,-2.0229,-2.0213,-2.0223,-2.0211,-2.0215,-2.0212,-2.0206,-2.0197,-2.0201,-2.02,-2.0186,-2.0171,-2.0167,-2.0166,-2.0159,-2.016,-2.0177,-2.0166,-2.0103,-2.0093,-2.0083,-2.0078,-2.0178,-2.0178,-2.0234,-2.0235,-2.0235]},{"header":{"parameterUnit":"m.s-1","parameterCategory":1,"la1":30.2991,"la2":30.254,"lo1":-89.0895,"lo2":-89.0444,"dy":0.0017,"dx":0.0017,"nx":28,"ny":28,"refTime":"2025-04-23T09:00:00:Z","depth":0,"parameterNumber":3,"parameterNumberName":"V-component_of_WINDS"},"data":[0,0,0,0,0,0,0,0,0,0,0,0,0,0,0,0,0,0,0,0,0,0,0,0,0,0,0,0,0,0,0,0,0,0,0,0,0,0,0,0,0,0,0,0,0,0,0,0,0,0,0,0,0,0,0,0,0,0,2.125,2.125,0,2.1292,2.1292,2.1293,2.1319,2.1319,2.1319,2.1319,2.1362,2.1363,2.1364,0,0,0,0,0,0,0,0,0,0,0,0,0,2.1192,2.1193,2.1249,2.125,2.1251,2.1292,2.1292,2.1293,2.1319,2.1319,2.1319,2.1319,2.1362,2.1363,2.1364,0,0,0,0,0,0,0,0,0,0,0,0,0,2.1224,2.1194,2.1249,2.1268,2.1271,2.1291,2.1292,2.1293,2.1319,2.1319,2.1319,2.1319,2.1362,2.1363,2.1365,2.137,0,0,2.1369,2.137,0,0,0,0,0,0,0,0,2.1222,2.1226,2.1265,2.1267,2.127,2.13,2.1288,2.1319,2.1319,2.13,2.1319,2.1319,2.1341,2.1345,2.1352,2.1372,2.1374,2.1369,2.137,2.1371,2.1371,0,0,0,0,0,0,0,2.122,2.1224,2.1266,2.1266,2.1268,2.1275,2.128,2.1294,2.1319,2.1302,2.1304,2.1309,2.1343,2.135,2.1353,2.1374,2.1369,2.1371,2.1372,2.1372,2.1402,2.1401,0,0,0,0,0,0,2.1215,2.1222,2.1265,2.1267,2.1246,2.1276,2.1281,2.129,2.1319,2.1324,2.1308,2.131,2.1348,2.1351,2.1355,2.1364,2.1371,2.1372,2.1373,2.1402,2.1402,2.1401,0,0,0,0,0,0,2.1213,2.1218,2.1263,2.1246,2.1252,2.1277,2.1286,2.1291,2.1299,2.1324,2.1329,2.1312,2.1348,2.1353,2.1366,2.1365,2.1373,2.1374,2.1402,2.1402,2.1401,2.1381,0,0,0,0,0,0,2.1212,2.1218,2.122,2.1245,2.1253,2.1273,2.1286,2.1291,2.1301,2.1303,2.1328,2.1333,2.1349,2.1364,2.1368,2.1368,2.1376,2.1402,2.1402,2.1402,2.1382,2.138,2.1378,0,0,0,0,0,2.121,2.1212,2.122,2.1225,2.1256,2.1273,2.1277,2.1296,2.1301,2.1304,2.132,2.1332,2.1365,2.1365,2.137,2.137,2.1402,2.1402,2.1402,2.1382,2.138,2.1378,0,0,0,0,0,0,2.1185,2.1216,2.1224,2.1235,2.1251,2.1278,2.1281,2.1293,2.1308,2.1309,2.1331,2.1337,2.1348,2.136,2.136,2.1377,2.1385,2.1386,2.1369,2.1367,2.1365,2.1362,2.1377,0,0,0,0,0,2.1181,2.1193,2.1219,2.1226,2.1234,2.1256,2.1264,2.1277,2.1295,2.1302,2.1319,2.1336,2.135,2.1359,2.1374,2.1383,2.139,2.1386,2.1385,2.1383,2.1383,2.139,2.1389,2.14,2.14,2.14,0,0,2.1173,2.1191,2.1197,2.1221,2.1236,2.1247,2.1262,2.1273,2.1282,2.1304,2.1318,2.1331,2.1351,2.1363,2.1369,2.1374,2.1382,2.1383,2.1381,2.1383,2.139,2.1389,2.1388,2.14,2.14,2.14,0,0,2.1164,2.1179,2.1186,2.12,2.1222,2.1237,2.1238,2.1263,2.1273,2.1287,2.1303,2.1315,2.1339,2.1353,2.1363,2.136,2.1372,2.1364,2.1356,2.1362,2.1361,2.1361,2.136,2.136,2.1365,2.1364,2.1364,0,2.1151,2.1169,2.1189,2.12,2.1211,2.123,2.1239,2.1251,2.1276,2.1283,2.1288,2.1319,2.1334,2.135,2.1349,2.1357,2.136,2.1362,2.136,2.1359,2.1359,2.1359,2.1359,2.1363,2.1364,2.1364,2.1364,0,2.1153,2.1165,2.1169,2.1193,2.1204,2.1213,2.1235,2.1244,2.1256,2.127,2.1285,2.1304,2.1323,2.1327,2.1339,2.1345,2.1347,2.1356,2.1364,2.1357,2.1357,2.1357,2.1362,2.1362,2.1363,2.1363,0,0,2.113,2.1164,2.1165,2.1177,2.1202,2.1212,2.1223,2.1242,2.1249,2.1266,2.1276,2.1296,2.1304,2.1316,2.1329,2.1335,2.1332,2.1343,2.1344,2.134,2.1341,2.1334,2.1334,2.134,2.134,2.134,2.1339,0,2.1125,2.1145,2.1163,2.1177,2.1189,2.1208,2.1218,2.1235,2.1249,2.1261,2.1277,2.1291,2.1301,2.1308,2.1314,2.1331,2.1332,2.1331,2.135,2.135,2.1344,2.1334,2.1327,2.1325,2.1339,2.1339,2.1339,0,2.1122,2.1138,2.1153,2.1177,2.1183,2.1191,2.121,2.1222,2.1241,2.1251,2.1265,2.1279,2.1292,2.1299,2.1317,2.1316,2.1325,2.1334,2.1335,2.1337,2.1344,2.1337,2.1325,2.1325,2.1339,2.1339,2.1339,0,2.1104,2.1129,2.1142,2.1151,2.1179,2.1185,2.1197,2.1217,2.1227,2.1244,2.1251,2.1269,2.1279,2.1292,2.1311,2.1315,2.1328,2.1336,2.1337,2.1336,2.1339,2.1338,2.1329,2.1344,2.1344,2.1344,2.1344,0,2.1097,2.1105,2.1134,2.1142,2.1152,2.1173,2.1183,2.1197,2.1214,2.1225,2.1243,2.1253,2.1278,2.1291,2.1306,2.1319,2.1323,2.1332,2.1336,2.133,2.1329,2.1337,2.1337,2.1344,2.1344,2.1344,2.1344,0,2.1079,2.1098,2.1113,2.1139,2.1146,2.1152,2.1175,2.1184,2.1199,2.1213,2.1217,2.1241,2.1258,2.1278,2.1301,2.1311,2.1323,2.1329,2.1316,2.1319,2.1318,2.1318,2.1313,2.1314,2.1328,2.1328,2.1327,0,2.1073,2.108,2.1107,2.1116,2.1127,2.1141,2.1152,2.1173,2.1183,2.1207,2.1212,2.123,2.1246,2.1271,2.1291,2.1309,2.1315,2.1312,2.1318,2.1312,2.1316,2.1315,2.1316,2.1311,2.131,2.131,2.131,0,2.1061,2.107,2.1085,2.1103,2.1115,2.1131,2.1147,2.1153,2.1177,2.1188,2.1205,2.1217,2.1241,2.1259,2.1279,2.1292,2.1305,2.1308,2.1309,2.1304,2.1297,2.1301,2.1312,2.1308,2.1308,2.1308,2.1308,2.1308,2.1049,2.1056,2.1077,2.1093,2.1107,2.1122,2.1131,2.1148,2.1162,2.1183,2.1195,2.1212,2.1232,2.1261,2.1273,2.1287,2.1292,2.1293,2.1294,2.1294,2.1293,2.1294,2.1291,2.1291,2.1291,2.1291,2.1291,0,2.1038,2.1052,2.1067,2.1089,2.1101,2.1113,2.1131,2.1141,2.1156,2.1173,2.1188,2.1208,2.1226,2.1247,2.1266,2.1273,2.1279,2.1277,2.1277,2.128,2.1287,2.1284,2.1272,2.1272,2.1272,2.1272,2.1272,2.1272,2.1034,2.1047,2.1059,2.108,2.1094,2.1111,2.1121,2.1135,2.1149,2.117,2.1185,2.1199,2.1218,2.1239,2.1255,2.1261,2.1268,2.1264,2.1271,2.1278,2.1279,2.1281,2.1279,2.1265,2.1265,2.1263,2.1263,2.1263]}]]